Weather in Orel

Russia / Perm Krai     59°20′25″N   56°35′15″E
temp.,
°C
wind,
m/s
gust,
m/s
humid.,
%
clouds,
%
prec.,
mm/h
press.,
hPa
HPBL,
m
8 august, mon
mon823:00+22ssw1155100 0.0 101913
02:00+20s116189 0.0 101911
05:00+20ssw116458 0.0 101918
08:00+21se006578 0.0 102078
11:00+22wsw1269100 0.0 102090
14:00+30w113822 0.0 10201333
17:00+28w224276 0.0 10191283
20:00+23wnw115789 0.0 101914
9 august, tue
tue923:00+21nw116239 0.0 102015
02:00+19nne117265 0.0 102011
05:00+19n117598 0.0 102013
08:00+19nne128626 0.8 102093
11:00+26nnw125551 0.8 1020687
14:00+29n1143100 0.0 10191830
17:00+26nw2255100 0.0 1018410
20:00+20ene2690100 1.1 1018142
10 august, wed
wed1023:00+18ne129615 3.6 101930
02:00+16nnw119487 0.4 101911
05:00+16e1195100 0.5 101811
08:00+18sse129198 0.0 1018131
11:00+23s126796 0.0 1018608
14:00+27ssw234911 0.0 10171478
17:00+26sw3350100 0.0 10161233
20:00+21s1183100 0.6 101621
11 august, thu
thu1123:00+17s2395100 1.4 101674
02:00+16wsw279894 0.0 1015210
05:00+15w2699100 0.0 1015192
08:00+15wnw1399100 1.3 1014194
11:00+15wnw2597100 5.7 1014381
14:00+16wnw359499 1.4 1014458
17:00+14wnw369799 2.2 1014467
20:00+13wnw3798100 0.4 1014430
12 august, fri
fri1223:00+13nw41098100 2.0 1014542
02:00+12wnw399787 1.5 1014271
05:00+10wnw28978 1.5 1015173
08:00+13wnw2789100 0.0 1014207
11:00+16wnw3775100 0.0 1014506
14:00+16w3777100 0.3 1013324
17:00+15ssw3982100 0.3 1012346
20:00+14w31197100 1.6 1011780